Change the Weather History Date:

Sunday, April 7, 2013

  Actual Average Record
Temperature  
Mean Temperature 53 °F 46 °F  
Max Temperature 69 °F 59 °F 88 °F (1988)
Min Temperature 36 °F 34 °F 12 °F (1936)
Degree Days  
Heating Degree Days 12 19  
Month to date heating degree days 131 140  
Since 1 July heating degree days 6044 6089  
Cooling Degree Days 0 0  
Month to date cooling degree days 0 0  
Year to date cooling degree days 0 0  
Growing Degree Days 2 (Base 50)    
Moisture  
Dew Point 41 °F    
Average Humidity 67    
Maximum Humidity 93    
Minimum Humidity 40    
Precipitation  
Precipitation 0.03 in 0.08 in 1.22 in (1998)
Month to date precipitation 0.03 0.53  
Year to date precipitation 2.21 3.65  
Snow  
Snow 0.00 in 0.10 in - ()
Month to date snowfall 0.0 0.9  
Since 1 July snowfall 20.7 28.8  
Snow Depth 0.00 in    
Sea Level Pressure  
Sea Level Pressure 29.74 in    
Wind  
Wind Speed 7 mph (ESE)    
Max Wind Speed 20 mph    
Max Gust Speed 23 mph    
Visibility 9 miles    
Events Rain    
T = Trace of Precipitation, MM = Missing Value Source: NWS Daily Summary

Daily Weather History Graph

Daily Weather History Graph

Search for Another Location

Airport or City:

Trip Planner

Search our weather history database for the weather conditions in past years. The results will help you decide how hot, cold, wet, or windy it might be!

Date:

Astronomy

Apr. 07, 2013 Rise Set
Actual Time 7:01 AM CDT 8:02 PM CDT
Civil Twilight 6:33 AM CDT 8:30 PM CDT
Nautical Twilight 5:59 AM CDT 9:04 PM CDT
Astronomical Twilight 5:24 AM CDT 9:40 PM CDT
Moon 5:22 AM CDT (4/7) 5:33 PM CDT (4/7)
Length of Visible Light 13h 57m
Length of Day
13h 00m
Waning Crescent, 8% of the Moon is Illuminated
Apr 7
Waning Crescent
Apr 10
New
Apr 18
First Quarter
Apr 25
Full
May 2
Last Quarter

Hourly Weather History & Observations

Time (CDT) Temp. Windchill Dew Point Humidity Pressure Visibility Wind Dir Wind Speed Gust Speed Precip Events Conditions
12:56 AM 46.9 °F - 41.0 °F 80% 29.81 in 10.0 mi Calm Calm - N/A   Partly Cloudy
1:56 AM 45.0 °F - 39.0 °F 80% 29.81 in 10.0 mi Calm Calm - N/A   Clear
2:56 AM 41.0 °F - 37.0 °F 86% 29.81 in 10.0 mi Calm Calm - N/A   Partly Cloudy
3:56 AM 39.9 °F 36.7 °F 37.9 °F 93% 29.81 in 10.0 mi East 4.6 mph - N/A   Clear
4:56 AM 39.0 °F - 36.0 °F 89% 29.80 in 10.0 mi Calm Calm - N/A   Partly Cloudy
5:56 AM 39.9 °F 35.1 °F 37.0 °F 89% 29.81 in 10.0 mi SE 6.9 mph - N/A   Mostly Cloudy
6:56 AM 42.1 °F 38.4 °F 37.9 °F 85% 29.81 in 10.0 mi East 5.8 mph - N/A   Mostly Cloudy
7:56 AM 44.1 °F 39.5 °F 37.9 °F 79% 29.82 in 9.0 mi East 8.1 mph - N/A   Overcast
8:56 AM 46.0 °F 41.0 °F 39.0 °F 76% 29.82 in 8.0 mi East 10.4 mph - N/A   Scattered Clouds
9:56 AM 50.0 °F - 39.9 °F 68% 29.78 in 8.0 mi East 12.7 mph - N/A   Scattered Clouds
10:56 AM 54.0 °F - 39.9 °F 59% 29.78 in 9.0 mi ESE 13.8 mph - N/A   Scattered Clouds
11:56 AM 61.0 °F - 39.9 °F 46% 29.77 in 10.0 mi SE 17.3 mph - N/A   Mostly Cloudy
12:56 PM 63.0 °F - 41.0 °F 45% 29.74 in 10.0 mi SSE 12.7 mph 20.7 mph 0.00 in   Partly Cloudy
1:56 PM 66.9 °F - 41.0 °F 39% 29.71 in 10.0 mi South 13.8 mph - N/A   Mostly Cloudy
2:18 PM 68.0 °F - 33.8 °F 28% 29.72 in 2.5 mi WSW 16.1 mph 21.9 mph N/A   Haze
2:24 PM 68.0 °F - 33.8 °F 28% 29.72 in 10.0 mi WSW 17.3 mph - N/A   Mostly Cloudy
2:56 PM 68.0 °F - 35.1 °F 30% 29.70 in 10.0 mi West 16.1 mph 19.6 mph 0.00 in Rain Light Rain
3:56 PM 64.0 °F - 41.0 °F 43% 29.71 in 10.0 mi NW 11.5 mph - N/A   Mostly Cloudy
4:56 PM 59.0 °F - 48.9 °F 69% 29.71 in 10.0 mi North 5.8 mph - 0.01 in Rain Light Rain
5:56 PM 55.0 °F - 50.0 °F 83% 29.68 in 9.0 mi NE 4.6 mph - 0.01 in Rain Light Rain
6:56 PM 54.0 °F - 51.1 °F 90% 29.68 in 9.0 mi East 4.6 mph - 0.01 in Rain Light Rain
7:56 PM 52.0 °F - 50.0 °F 93% 29.68 in 10.0 mi ESE 9.2 mph - 0.00 in   Clear
8:56 PM 50.0 °F - 48.0 °F 93% 29.65 in 10.0 mi ESE 5.8 mph - N/A   Clear
9:56 PM 48.0 °F - 46.9 °F 96% 29.64 in 10.0 mi SE 6.9 mph - N/A   Clear
10:56 PM 48.9 °F - 46.9 °F 93% 29.63 in 10.0 mi Calm Calm - N/A   Clear
11:56 PM 46.0 °F - 44.1 °F 93% 29.62 in 10.0 mi Calm Calm - N/A   Clear